Location: C�an Torras
(41.5052°N, 1.9280°E)
Time: 08:01:48
(UTC+00:00)

Cosmos 1689 Rocket - Visible Passes

Search period start: 09 May 2021 00:00
Search period end: 19 May 2021 00:00
Orbit: 346 x 360 km, 97.5° (Epoch: 08 May)

Date Brightness Start Highest point End Pass type
(mag) Time Alt. Az. Time Alt. Az. Time Alt. Az.
10 May 4.9 19:42:06 10° NNW 19:44:21 22° WNW 19:46:34 10° SW visible
13 May 3.9 19:29:57 10° N 19:32:32 34° WNW 19:35:05 10° SW visible
14 May 5.3 19:56:58 10° NNW 19:58:37 15° WNW 20:00:17 10° WSW visible
17 May 4.9 19:44:20 10° NNW 19:46:34 22° WNW 19:48:49 10° SW visible
